TimeEST,TemperatureF,Dew PointF,Humidity,Sea Level PressureIn,VisibilityMPH,Wind Direction,Wind SpeedMPH,Gust SpeedMPH,PrecipitationIn,Events,Conditions,WindDirDegrees,DateUTC
1:39 AM,42.8,42.8,100,29.95,2.0,South,5.8,-,N/A,,Clear,170,2013-01-12 06:39:00
1:54 AM,44.6,42.8,93,29.95,4.0,South,5.8,-,N/A,,Clear,170,2013-01-12 06:54:00
1:56 AM,44.1,43.0,96,29.96,4.0,South,5.8,-,N/A,,Clear,170,2013-01-12 06:56:00
2:36 AM,42.8,42.8,100,29.97,0.8,SSE,3.5,-,N/A,,Clear,160,2013-01-12 07:36:00
2:50 AM,41.0,41.0,100,29.97,1.2,SSE,4.6,-,N/A,,Clear,160,2013-01-12 07:50:00
2:56 AM,41.0,41.0,100,29.99,1.8,SSE,5.8,-,N/A,,Clear,160,2013-01-12 07:56:00
3:03 AM,42.8,42.8,100,29.97,2.5,South,5.8,-,N/A,,Clear,170,2013-01-12 08:03:00
3:12 AM,42.8,42.8,100,29.97,1.2,South,5.8,-,N/A,,Partly Cloudy,170,2013-01-12 08:12:00
3:14 AM,42.8,42.8,100,29.97,0.8,SSE,5.8,-,N/A,,Mist,160,2013-01-12 08:14:00
3:56 AM,46.0,46.0,100,29.98,0.2,South,6.9,-,N/A,Fog,Fog,190,2013-01-12 08:56:00
4:09 AM,48.2,48.2,100,29.97,1.2,SSW,9.2,-,N/A,,Overcast,200,2013-01-12 09:09:00
4:19 AM,48.2,48.2,100,29.97,0.8,SSW,8.1,-,N/A,,Overcast,200,2013-01-12 09:19:00
4:56 AM,50.0,48.9,96,29.98,1.2,SSW,8.1,-,N/A,,Overcast,200,2013-01-12 09:56:00
5:08 AM,50.0,48.2,94,29.97,3.0,SSW,9.2,-,N/A,,Overcast,210,2013-01-12 10:08:00
5:56 AM,50.0,50.0,100,29.99,3.0,SSW,8.1,-,N/A,,Overcast,210,2013-01-12 10:56:00
6:56 AM,48.9,48.9,100,30.00,4.0,SSW,8.1,-,N/A,,Mostly Cloudy,210,2013-01-12 11:56:00
7:56 AM,51.1,50.0,96,30.02,6.0,SSW,9.2,-,N/A,,Overcast,210,2013-01-12 12:56:00
8:51 AM,53.6,51.8,94,30.02,5.0,SW,11.5,-,N/A,,Overcast,220,2013-01-12 13:51:00
8:56 AM,53.1,51.1,93,30.03,5.0,SSW,9.2,-,N/A,,Overcast,200,2013-01-12 13:56:00
9:20 AM,53.6,51.8,94,30.03,6.0,SSW,9.2,-,N/A,,Mostly Cloudy,200,2013-01-12 14:20:00
9:56 AM,55.0,53.1,93,30.04,7.0,SSW,11.5,-,N/A,,Overcast,210,2013-01-12 14:56:00
10:56 AM,55.9,53.1,90,30.04,9.0,SW,9.2,-,N/A,,Mostly Cloudy,220,2013-01-12 15:56:00
11:56 AM,57.0,52.0,83,30.01,10.0,SSW,11.5,-,N/A,,Mostly Cloudy,210,2013-01-12 16:56:00
12:21 PM,57.2,51.8,82,30.01,10.0,SW,6.9,-,N/A,,Mostly Cloudy,230,2013-01-12 17:21:00
12:56 PM,57.9,53.1,84,30.01,10.0,SSW,11.5,-,N/A,,Mostly Cloudy,210,2013-01-12 17:56:00
1:56 PM,57.9,52.0,81,30.02,10.0,SSW,11.5,-,N/A,,Mostly Cloudy,200,2013-01-12 18:56:00
2:08 PM,57.2,51.8,82,30.00,10.0,SSW,13.8,-,N/A,,Scattered Clouds,200,2013-01-12 19:08:00
2:56 PM,59.0,53.1,81,30.01,10.0,SSW,10.4,-,N/A,,Clear,200,2013-01-12 19:56:00
3:56 PM,57.9,53.1,84,30.02,10.0,SSW,10.4,-,N/A,,Clear,210,2013-01-12 20:56:00
4:56 PM,57.0,52.0,83,30.01,10.0,Calm,Calm,-,N/A,,Clear,0,2013-01-12 21:56:00
5:56 PM,52.0,50.0,93,30.00,9.0,SE,4.6,-,N/A,,Partly Cloudy,140,2013-01-12 22:56:00
6:56 PM,53.1,51.1,93,29.99,6.0,SSE,3.5,-,N/A,,Clear,150,2013-01-12 23:56:00
7:56 PM,50.0,50.0,100,29.97,4.0,SE,4.6,-,N/A,,Clear,130,2013-01-13 00:56:00
8:34 PM,51.8,51.8,100,29.96,4.0,SSE,4.6,-,N/A,,Mostly Cloudy,150,2013-01-13 01:34:00
8:56 PM,53.1,52.0,96,29.96,4.0,Calm,Calm,-,N/A,,Overcast,0,2013-01-13 01:56:00
9:56 PM,53.1,52.0,96,29.93,4.0,SSE,4.6,-,0.01,,Overcast,150,2013-01-13 02:56:00
10:09 PM,53.6,53.6,100,29.92,4.0,SSE,3.5,-,N/A,,Overcast,150,2013-01-13 03:09:00
10:56 PM,54.0,53.1,97,29.90,3.0,SE,4.6,-,N/A,,Overcast,140,2013-01-13 03:56:00
11:04 PM,53.6,53.6,100,29.89,3.0,SE,5.8,-,0.00,Rain,Light Rain,140,2013-01-13 04:04:00
11:29 PM,57.2,55.4,94,29.88,7.0,South,10.4,-,0.00,,Overcast,170,2013-01-13 04:29:00
11:56 PM,59.0,57.0,93,29.86,9.0,South,12.7,18.4,0.00,,Overcast,170,2013-01-13 04:56:00